This demonstration page uses our WeatherBlox Daily Observations layout. Learn more.

39.92423, -83.80882

Hourly Observations for June 24, 2020

Temp ( °F °C ) Dew Point ( °F °C ) Humidity (%) Winds ( mph kmh ) Pressure ( in mb ) Visibility ( mi km ) Precip ( " mm )
12:56 am 00:56 Clear 62 16.7 59 15 90 90 SW 6 9 29.83 1010 10 16.0934 0.11 2.794
1:56 am 01:56 Mostly Cloudy 62 16.7 59 15 90 90 SW 8 13 29.84 1010 10 16.0934 0.05 1.27
2:56 am 02:56 Cloudy 62 16.7 58 14.4 86 86 SW 7 11 29.83 1010 10 16.0934 0 0
3:56 am 03:56 Cloudy 62 16.7 58 14.4 86 86 SW 6 9 29.83 1010 10 16.0934 0 0
4:56 am 04:56 Cloudy 61 16.1 58 14.4 90 90 SW 5 7 29.84 1011 10 16.0934 0 0
5:56 am 05:56 Cloudy 60 15.6 59 15 96 96 SW 5 7 29.85 1011 10 16.0934 0 0
6:56 am 06:56 Cloudy 61 16.1 59 15 93 93 SSW 6 9 29.86 1011 10 16.0934 0 0
7:56 am 07:56 Cloudy 63 17.2 60 15.6 90 90 SW 6 9 29.87 1012 10 16.0934 0 0
8:56 am 08:56 Mostly Cloudy 66 18.9 59 15 78 78 WNW 7 11 29.88 1012 10 16.0934 0 0
9:56 am 09:56 Sunny 70 21.1 58 14.4 66 66 WNW 9 15 29.88 1012 10 16.0934 0 0
10:56 am 10:56 Mostly Sunny 72 22.2 58 14.4 61 61 WNW 10 17 29.88 1012 10 16.0934 0.01 0.254
11:56 am 11:56 Mostly Cloudy 73 22.8 57 13.9 57 57 NW 10 17 29.89 1012 10 16.0934 0 0
12:56 pm 12:56 Cloudy 73 22.8 58 14.4 59 59 WNW 10 17 29.89 1012 10 16.0934 0 0
1:56 pm 13:56 Mostly Cloudy 74 23.3 57 13.9 56 56 WNW 10 17 29.89 1012 10 16.0934 0 0
2:56 pm 14:56 Cloudy 73 22.8 58 14.4 59 59 W 6 9 29.89 1012 10 16.0934 0.001 0.001
3:56 pm 15:56 Mostly Cloudy 76 24.4 60 15.6 58 58 SW 16 26 29.89 1012 10 16.0934 0 0
4:56 pm 16:56 Mostly Cloudy 77 25 57 13.9 50 50 WSW 13 20 29.89 1012 10 16.0934 0 0
5:56 pm 17:56 Mostly Cloudy 76 24.4 58 14.4 54 54 SW 9 15 29.88 1012 10 16.0934 0.02 0.508
6:56 pm 18:56 Cloudy 75 23.9 58 14.4 55 55 SW 3 6 29.88 1012 10 16.0934 0.14 3.556
7:56 pm 19:56 Mostly Sunny 74 23.3 58 14.4 57 57 SSW 3 6 29.89 1012 10 16.0934 0 0
8:56 pm 20:56 Mostly Sunny 71 21.7 59 15 66 66 SSW 5 7 29.88 1012 10 16.0934 0.12 3.048
9:56 pm 21:56 Clear 67 19.4 59 15 76 76 WSW 3 6 29.9 1012 10 16.0934 0.18 4.572
10:56 pm 22:56 Clear 64 17.8 58 14.4 81 81 Calm 29.91 1013 10 16.0934 0.33 8.382
11:56 pm 23:56 Mostly Clear 63 17.2 58 14.4 84 84 Calm 29.93 1013 10 16.0934 0.04 1.016

Powered by AerisWeather